Location: Unspecified
(0.0000°N, 0.0000°E)
Time: 10:51:27
(UTC+00:00)

NOSS 3-1 (A) - Pass Details

Date: 30 April 2019
Orbit: 778 x 1434 km, 63.4° (Epoch: 13 May)

Event Time Altitude Azimuth Distance (km) Brightness Sun altitude
Rises 02:50:14 0° 348° (NNW) 4,375 7.0 -44.8°
Reaches altitude 10° 02:53:09 10° 353° (N) 3,456 6.4 -44.1°
Enters shadow 02:56:19 25° 2° (N) 2,533 5.7 -43.4°
Exits shadow 02:59:49 48° 33° (NNE) 1,807 4.9 -42.6°
Maximum altitude 03:01:32 54° 68° (ENE) 1,698 4.8 -42.2°
Drops below altitude 10° 03:10:00 10° 142° (SE) 3,492 6.5 -40.2°
Sets 03:12:57 0° 146° (SSE) 4,424 7.1 -39.5°
